www.pogodaiklimat.ru

Погода и климат >> Архив погоды >> Россия >> Краснодарский край >> Лабинск


ПОГОДА в Лабинске

  • Прогноз погоды в Лабинске
  • Монитор погоды в Лабинске

АРХИВ ПОГОДЫ в Лабинске

Время (UTC), дата Ветер
(напр.,м/с)
 
Видим.   Явления Облачность Т
(С)
Тd
(С)
f
(%)
Тe
(С)
Тes
(С)
Комфортность P
(гПа)
Po
(гПа)
Тmin
(С)
Tmax
(С)
R
(мм)
R24
(мм)
S
(см)
12 16.07 З 4 10 км в посл. час гроза {ливн. осадки} 6/6 600 м
[Cb cap]
+24.3 +16.8 63 +28 +31 душно 1006.1 976.4
15 16.07 З 5-11
{13}
10 км 8/8 600 м
[Cb cap]
+24.6 +12.8 48 +27 +27 жарко 1006.9 977.1 +26.0 0.3
18 16.07 З 2
{13}
10 км ясно +19.3 +13.2 68 +21 +21 комфорт 1009.6 979.2
21 16.07 Ю 2 10 км ясно +17.2 +13.1 77 +18 +18 1010.3 979.7
00 17.07 Ю 2 10 км ясно +14.8 +13.0 89 +14 +14 1010.3 979.4
03 17.07 ЮВ 2 50 км ясно +15.3 +12.9 86 +15 +16 1010.4 979.6 +14.3
06 17.07 ЮВ 1 50 км 1/0
[Ac trans Ci fib]
+23.9 +12.8 50 +26 +37 жарко 1008.7 978.8
09 17.07 В 2 10 км 3/1 1000 м
[Cu hum Ci fib]
+27.2 +11.8 38 +28 +44 жарко 1007.2 977.6
12 17.07 СВ 1 10 км 8/8 1000 м
[Cu hum]
+29.7 +11.3 32 +30 +33 жарко 1005.9 976.7
15 17.07 С 2 10 км 10/9 1000 м
[Sc Ac trans Ci fib]
+26.6 +12.7 42 +28 +28 жарко 1005.8 976.2 +30.6
18 17.07 штиль 0 10 км 8/8 1000 м
[Sc Ac trans]
+21.2 +12.8 59 +23 +23 комфорт 1006.5 976.4
21 17.07 СВ 1 15 км 8/8 2000 м
[Sc Ac trans]
+17.6 +13.6 77 +19 +19 1006.2 975.7
00 18.07 Ю 1 10 км 4/0
[Ac trans]
+16.4 +13.9 85 +17 +17 1006.0 975.4
03 18.07 ЮВ 1 10 км 10/3 1000 м
[Sc Ac trans Ci fib]
+16.7 +14.6 87 +18 +18 1006.1 975.5 +15.6
06 18.07 С 1 10 км слаб. ливневой дождь 10/10 600 м
[Cb calv]
+18.2 +16.8 92 +20 +20 1006.9 976.5
09 18.07 Ю 2 10 км гроза, ливневой дождь 10/10 600 м
[Cb cap]
+18.6 +17.1 91 +20 +20 1007.9 977.5
12 18.07 СВ 1 10 км {гроза, ливн. осадки} 10/4 1000 м
[Cu med, cong Cc]
+25.3 +17.7 63 +30 +37 душно 1007.5 977.8
15 18.07 С 2 10 км 10/6 1000 м
[Cb cap Ac und]
+22.3 +18.2 78 +27 +28 душно 1008.6 978.6 +26.5 7
18 18.07 штиль 0 10 км {ливн. осадки} 10/0
[Ac trans Ci sp]
+18.7 +17.0 90 +20 +20 1010.3 979.9
21 18.07 штиль 0 н/о н/о +17.3 +16.2 93 +17 +17 1011.6 981.0
00 19.07 Ю 1 10 км гроза, ливневой дождь 10/10 600 м
[Cb cap]
+18.1 +17.1 94 +19 +19 1011.8 981.3
03 19.07 штиль 0 500 м туман {гроза, ливн. осадки} ?/? +17.7 +16.8 94 +18 +18 1013.3 982.7 +15.3 13
06 19.07 штиль 0 10 км {гроза, ливн. осадки} 10/5 1000 м
[Sc diur, vesp Ci sp]
+21.5 +20.1 92 +27 +32 душно 1013.7 983.5
09 19.07 С 1 10 км 9/6 1000 м
[Cu med, cong Ac trans]
+24.3 +17.9 67 +28 +33 душно 1013.3 983.4
12 19.07 штиль 0 10 км гроза без осадков {ливн. осадки} 10/10 600 м
[Cb cap]
+23.4 +17.8 71 +29 +29 душно 1014.0 983.9
15 19.07 ЮЗ 1 4000 м ливневой дождь {гроза} 10/10 600 м
[Cb cap]
+20.0 +18.4 91 +24 +24 комфорт 1015.2 984.8 +24.4 2
18 19.07 Ю 1 10 км в посл. час ливневой дождь {гроза} 10/10 1000 м
[Cb cap]
+19.3 +17.9 92 +22 +22 комфорт 1016.3 985.7
21 19.07 штиль 0 10 км {ливн. осадки} 8/0
[Ac trans]
+18.6 +17.4 93 +20 +20 1016.8 986.2
00 20.07 ЮЗ 1 10 км {ливн. осадки} н/о +16.4 +15.4 94 +17 +17 1017.4 986.5
03 20.07 ЮВ 1 10 км ясно +16.9 +16.0 94 +18 +19 1018.1 987.3 +16.1 2
06 20.07 В 1 10 км 4/0
[Ac trans]
+24.0 +17.1 65 +28 +37 душно 1017.5 987.4
09 20.07 СВ 2 10 км 6/6 600 м
[Cb cap]
+28.2 +18.5 56 +33 +41 очень
душно
1016.1 986.5
12 20.07 С 2 10 км 6/6 600 м
[Cb cap]
+30.7 +18.0 47 +35 +40 очень
душно
1015.1 985.7
15 20.07 В 2 10 км 6/6 600 м
[Cb cap]
+28.1 +16.6 50 +32 +33 душно 1014.7 985.1 +31.3
18 20.07 В 2 10 км ясно +23.7 +17.3 67 +28 +28 душно 1015.5 985.4
21 20.07 штиль 0 10 км 3/0
[Ac trans]
+19.9 +17.1 84 +22 +22 комфорт 1015.5 985.0
00 21.07 штиль 0 10 км ясно +18.7 +16.8 89 +20 +20 1015.0 984.4
03 21.07 В 1 10 км 10/3 1000 м
[Sc Ac trans Ci sp]
+19.9 +17.6 87 +24 +24 комфорт 1014.6 984.2 +18.2
06 21.07 СВ 1 10 км {гроза, ливн. осадки} 10/10 1000 м
[Sc]
+24.1 +18.5 71 +29 +29 душно 1013.7 983.7
09 21.07 С 3 10 км 10/10 1000 м
[Sc]
+27.8 +19.9 62 +34 +34 очень
душно
1012.2 982.7
12 21.07 З 2 10 км 10/10 600 м
[Sc]
+25.5 +20.5 74 +32 +32 очень
душно
1012.2 982.5
15 21.07 З 4 10 км 10/10 600 м
[Sc]
+22.5 +18.6 79 +28 +28 душно 1012.8 982.8 +28.7
18 21.07 С 1
{11}
10 км гроза, ливневой дождь 10/10 600 м
[Cb cap]
+19.1 +15.2 78 +22 +22 комфорт 1015.5 984.9
21 21.07 С 1 10 км слаб. ливневой дождь {гроза} 10/10 600 м
[Cb cap]
+18.2 +15.4 84 +20 +20 1017.3 986.6
00 22.07 ЮВ 3 10 км {гроза, ливн. осадки} 10/10 1000 м
[Sc]
+18.2 +15.7 85 +19 +19 1016.1 985.4
03 22.07 С 3 10 км слаб. ливневой дождь, в посл. час гроза 10/10 600 м
[Cb cap]
+17.3 +15.9 91 +17 +17 1016.7 985.9 +17.3
06 22.07 штиль 0 10 км {гроза, ливн. осадки} 10/10 600 м
[Cb cap]
+18.5 +16.3 87 +19 +19 1016.5 985.8 +17.2
09 22.07 В 3 10 км 10/10 600 м
[Cb cap]
+21.5 +16.1 71 +25 +25 комфорт 1015.9 985.5
12 22.07 СВ 2 10 км 9/9 1000 м
[Sc diur, vesp]
+22.8 +16.4 67 +27 +29 душно 1015.5 985.3
15 22.07 В 2 10 км 10/3 1000 м
[Sc diur, vesp Ac und]
+21.3 +16.4 74 +25 +25 комфорт 1015.4 985.1 +23.2
18 22.07 В 2 10 км 3/0
[Ac trans]
+19.0 +15.9 82 +21 +21 комфорт 1015.4 984.8
21 22.07 В 1 10 км 6/0
[Ac trans]
+17.0 +15.2 89 +18 +18 1014.5 983.8
00 23.07 штиль 0 10 км {метель} 6/0
[Ac trans]
+16.8 +15.6 93 +17 +17 1013.5 982.8
03 23.07 штиль 0 10 км 10/0
[Ac und]
+17.3 +16.0 92 +17 +18 1013.1 982.4 +16.1
06 23.07 В 2 10 км 8/3 1000 м
[Cu med, cong Ac trans]
+25.0 +17.7 64 +29 +33 душно 1011.2 981.4

 

Местоположение метеостанции Лабинск (Краснодарский край, Россия): широта 44.67 долгота 40.75 высота над уровнем моря 264 м.

В архиве по умолчанию представлена погода в Лабинске за последнюю неделю. Архивные данные за месяц целиком и за предыдущие месяцы, начиная с января 2011 года, Вы можете получить, выбрав интересующий диапазон дат из раскрывающегося списка и нажав кнопку "Ввод!".


*Определитесь, кто Вы:
робот инопланетянин человек

Внимание! Время в таблицах - всемирное. Для получения местного времени необходимо прибавить поправку, которая равна 3 ч.

Смотрите также архив погоды в соседних городах и на ближайших метеорологических станциях:

Погода в Дондуковской (Адыгея, Россия) (38 км)
Погода в Армавире (Краснодарский край, Россия) (45 км)
Погода в Майкопе (Адыгея, Россия) (53 км)
Погода в Шунтуке (Адыгея, Россия) (55 км)
Погода в Псебае (Краснодарский край, Россия) (60 км)
Погода в Отрадной (Краснодарский край, Россия) (65 км)
Погода в Белореченске (Краснодарский край, Россия) (68 км)
Погода в Кропоткине (Краснодарский край, Россия) (86 км)
Погода в Гузерипле (Адыгея, Россия) (89 км)
Погода в Невинномысске (Ставропольский край, Россия) (97 км)

Пояснения к столбцам:

Ветер - указаны скорость ветра в м/с - средняя за 10 мин, порывы в срок и между сроками (в фигурных скобках) и направление, откуда дует ветер: С - северный, СВ - северо-восточный, В - восточный, ЮВ - юго-восточный, Ю - южный, ЮЗ - юго-западный, З - западный, СЗ - северо-западный.
Видимость - горизонтальная дальность видимости в метрах или километрах. При видимости от 1 до 10 км при отсутствии осадков обычно наблюдается дымка, при ухудшении видимости до 1 км и менее - туман. В сухую погоду видимость может ухудшаться дымом, пылью или мглою.
Явления - указаны атмосферные явления, наблюдавшиеся в срок или в последний час перед сроком; фигурными скобками обозначены явления, наблюдавшиеся между сроками (за 1-3 часа до срока); квадратными скобками обозначены град или гололедные отложения с указанием их диаметра в мм.
Облачность - указаны через наклонную черту общая и нижняя облачность в баллах и высота нижней границы облаков в метрах; квадратными скобками обозначены формы облаков: Ci - перистые, Cs - перисто-слоистые, Cc - перисто-кучевые, Ac - высококучевые, As - высокослоистые, Sc - слоисто-кучевые, Ns - слоисто-дождевые, Cu - кучевые, Cb - кучево-дождевые. Подробнее классификацию облаков см. в Атласе облаков (PDF).
T - Температура воздуха - температура, измеренная на высоте 2 м над землей.
Td - Температура точки росы - температура, при понижении до которой содержащийся в воздухе водяной пар достигнет насыщения.
f - Относительная влажность воздуха - влажноcть воздуха, измеренная на высоте 2 м над землей.
Te - Эффективная температура - температура, которую ощущает одетый по сезону человек в тени. Характеристика душности погоды. При расчете учитывается влияние влажности воздуха и скорости ветра на теплоощущения человека.
Tes - Эффективная температура на солнце - температура, которую ощущает человек, с поправкой на солнечный нагрев. Характеристика знойности погоды. Зависит от высоты солнца над горизонтом, облачности и скорости ветра. Ночью, в пасмурную погоду, а также при ветре 12 м/с и более поправка равна нулю.
P - Атмосферное давление - приведенное к уровню моря атмосферное давление.
Po - Атмосферное давление - измеренное на уровне метеостанции атмосферное давление.
Tmin - Минимальная температура - минимум температуры воздуха на высоте 2 м над землей.
Tmax - Максимальная температура - максимум температуры воздуха на высоте 2 м над землей.
R - Количество осадков - Количество выпавших осадков за период времени, мм. При наведении курсора мыши на число - период времени, за который выпало указанное количество осадков.
R24 - Количество осадков - Количество выпавших осадков за 24 часа, мм.
S - Снежный покров - Высота снежного покрова, см. При наведении курсора мыши на число - состояние снежного покрова и степень покрытия местности в баллах.